User: anonymous   Login
Location: Unspecified
(0.0000°N, 0.0000°E)
Time: 19:08:22
(UTC+00:00)
Language:

ZA-AEROSAT - Orbit

View from above orbital plane
View from above orbital plane
View from above satellite
View from above satellite

Ground track
Ground track

The orbit data is extracted from the following two-line orbital elements,

1 42713U 98067LU  18351.53886771  .00037390  00000-0  22217-3 0  9999
2 42713  51.6337 140.3374 0002531 177.9051 182.1961 15.77613762 90379
Epoch (UTC): 17 December 2018 12:55:58
Eccentricity: 0.0002531
inclination: 51.6337°
perigee height: 335 km
apogee height: 339 km
right ascension of ascending node: 140.3374°
argument of perigee: 177.9051°
revolutions per day: 15.77613762
mean anomaly at epoch: 182.1961°
orbit number at epoch: 9037

The dashed part of the orbit path shows where the satellite is in the earth's shadow,  

DLR